Regional Weather Roundup
Issued by NWS Jackson, KY

Home | Current Version | Previous Version | Text Only | Print | Product List | Glossary Off
Versions: 1 2 3 4 5 6 7 8 9 10 11 12 13 14 15 16 17 18 19 20 21 22 23 24 25 26 27 28 29 30 31 32 33 34 35 36 37 38 39 40 41 42 43 44 45 46 47 48 49 50

000
ASUS43 KJKL 301210
RWRJKL

EAST KENTUCKY HOURLY WEATHER ROUNDUP
NATIONAL WEATHER SERVICE JACKSON KY
800 AM EDT THU JUL 30 2015

NOTE: "FAIR" INDICATES FEW OR NO CLOUDS BELOW 12,000 FEET WITH
NO SIGNIFICANT WEATHER AND/OR OBSTRUCTIONS TO VISIBILITY.

* THESE REPORTS ARE NOT UNDER NWS QUALITY CONTROL AND MAY NOT
  REPORT WEATHER SUCH AS PRECIPITATION AND FOG.

KYZ079-080-083-085-087-088-110-112-115-119-120-301300
...EASTERN KENTUCKY...

CITY           SKY/WX    TMP DP  RH WIND       PRES   REMARKS
JACKSON        CLOUDY    72  69  90 NW6       30.06R
6HR MIN TEMP:  72; 6HR MAX TEMP:  74;

LONDON         CLOUDY    74  67  78 NW7       30.06S
6HR MIN TEMP:  72; 6HR MAX TEMP:  74; 6HR PCP: TRACE;

SOMERSET*      MOSUNNY   72  72 100 CALM      30.07S
MONTICELLO*    PTSUNNY   74  73  96 CALM      30.10R
6HR MIN TEMP:  71; 6HR MAX TEMP:  74;

WILLIAMSBURG*  PTSUNNY   72  72 100 CALM      30.07R
MIDDLESBORO*   CLOUDY    75  71  88 E5        30.06R
6HR MIN TEMP:  71; 6HR MAX TEMP:  75;

HAZARD APT*    CLOUDY    73  72  94 NW3       30.06R
BLACK MTN*       N/A     66  66 100 N3          N/A
PIKEVILLE APT* CLOUDY    72  70  94 W5        30.06R FOG
BIG SANDY*     CLOUDY    73  72  96 NW3       30.04R
6HR MIN TEMP:  73; 6HR MAX TEMP:  77;

MOREHEAD APT*  MOSUNNY   72  70  94 NW3       30.07R FOG
$$

KYZ035-036-041-042-044-050-067-078-099-301300
...CENTRAL KENTUCKY...

CITY           SKY/WX    TMP DP  RH WIND       PRES   REMARKS
MT STERLING*   PTSUNNY   70  68  94 N3        30.08R
FLEMING/MASON* CLOUDY    73  66  78 N5        30.06R
DANVILLE*      MOSUNNY   70  64  83 N8        30.09R
RICHMOND*      PTSUNNY   72  66  83 CALM      30.07R
LEXINGTON      SUNNY     70  63  78 NW5       30.08R
6HR MIN TEMP:  69; 6HR MAX TEMP:  74;

FRANKFORT      SUNNY     69  63  81 NW5       30.07R
6HR MIN TEMP:  68; 6HR MAX TEMP:  73;

$$

KYZ091>093-OHZ055-061-077-WVZ005-015-034-035-042-301300
...SOUTHERN OHIO/WEST VIRGINIA...

CITY           SKY/WX    TMP DP  RH WIND       PRES   REMARKS
COVINGTON      PTSUNNY   70  61  73 NW6       30.07R
COLUMBUS       PTSUNNY   71  61  70 NW6       30.01R
DAYTON         MOSUNNY   68  61  78 NW8       30.06R
WILMINGTON     MOSUNNY   72  62  71 NW5       30.05R
HUNTINGTON     CLOUDY    75  70  84 N6        30.01R
CHARLESTON     CLOUDY    76  73  91 CALM      30.00R FOG
PINEVILLE*     CLOUDY    71  71 100 MISG      30.10R FOG
BECKLEY        LGT RAIN  71  68  90 W5        30.08R FOG
BLUEFIELD      CLOUDY    72  68  87 W5        30.11R
$$

VAZ002-007-008-TNZ017-027-036-066-071-301300
...SOUTHWEST VIRGINIA/EAST TENNESSEE...

CITY           SKY/WX    TMP DP  RH WIND       PRES   REMARKS
WISE*          PTSUNNY   72  72 100 W6        30.12S
ABINGDON*      MOSUNNY   74  71  90 CALM      30.08R
BRISTOL        CLOUDY    73  71  93 CALM      30.05R
KNOXVILLE      MOSUNNY   78  72  81 N3        30.03R
OAK RIDGE      SUNNY     76  72  87 CALM      30.04R
CROSSVILLE     CLOUDY    73  69  87 N6        30.10R
NASHVILLE      PTSUNNY   77  68  73 N12       30.07R
$$

...KEY TO REMARKS...
VSB - VISIBILITY IN MILES
WCI - WIND CHILL INDEX
HX  - HEAT INDEX

$$



USA.gov is the U.S. government's official web portal to all federal, state and local government web resources and services.